Overview Statistics Trail Chart Weather Telemetry Raw packets
 

This is the latest recevied weather packets stored in our database for station/object HP1MRA-15. If no packets are shown the sender has not sent any weather packets the latest 10 day(s).

<< 83 84 85 86 87 88 89 >>
Time Temp. Humidity Pressure Rain* Wind** Luminosity Snow
1788121229 29.44° C 69% 1001.2 hPa 25.65 mm - - -
1788120928 29.44° C 69% 1001.1 hPa 25.4 mm - - -
1788120629 28.89° C 70% 1001 hPa 25.15 mm - - -
1788120627 28.89° C 70% 1000.9 hPa 25.15 mm - - -
1788120328 28.89° C 71% 1001 hPa 25.15 mm - - -
1788120029 28.89° C 71% 1001.4 hPa 25.15 mm - - -
1788119728 29.44° C 70% 1001.9 hPa 24.38 mm - - -
1788119728 29.44° C 70% 1001.8 hPa 24.38 mm - - -
1788119429 30° C 70% 1002 hPa 23.88 mm - - -
1788119128 30° C 69% 1001.9 hPa 23.62 mm - - -
1788118829 30.56° C 70% 1001.6 hPa 19.05 mm - - -
1788118827 30.56° C 70% 1001.5 hPa 19.05 mm - - -
1788118528 30.56° C 71% 1001.7 hPa 13.46 mm - - -
1788118228 31.67° C 71% 1001.5 hPa 9.14 mm - - -
1788117929 32.78° C 69% 1001.1 hPa 7.37 mm - - -
1788117927 32.78° C 69% 1001.1 hPa 7.37 mm - - -
1788117628 32.22° C 69% 1001 hPa 4.06 mm - - -
1788117328 - - 1000.9 hPa 3.81 mm - - -
1788117028 32.22° C 71% 1000.8 hPa 3.81 mm - - -
1788116728 31.67° C 70% 1000.7 hPa 3.81 mm - - -
1788116428 31.67° C 70% 1000.7 hPa 3.81 mm - - -
1788116128 31.67° C 69% 1000.9 hPa 3.81 mm - - -
1788116127 31.67° C 69% 1000.9 hPa 3.81 mm - - -
1788115827 31.67° C 69% 1001 hPa 3.81 mm - - -
1788115527 31.67° C 69% 1001.2 hPa 2.79 mm - - -

* Rain latest hour (hover to see other rain measurements)
** Current wind speed in m/s (hover to see current wind gust speed)